www.pogodaiklimat.ru

Погода и климат >> Архив погоды >> Россия >> Якутия >> Ярольин


ПОГОДА в Ярольине

  • Прогноз погоды в Ярольине
  • Монитор погоды в Ярольине

АРХИВ ПОГОДЫ в Ярольине

Время (UTC), дата Ветер
(напр.,м/с)
 
Видим.   Явления Облачность Т
(С)
Тd
(С)
f
(%)
Тe
(С)
Тes
(С)
Комфортность P
(гПа)
Po
(гПа)
Тmin
(С)
Tmax
(С)
R
(мм)
R24
(мм)
S
(см)
12 12.08 СЗ 1 2000 м мгла 10/0
[Ac cast Cs]
+23.4 +10.1 43 +25 +25 комфорт 1006.5 979.7 +25.2
15 12.08 штиль 0 4000 м мгла 10/0
[Ac trans Cs]
+16.7 +9.2 61 +17 +17 1008.0 980.5
18 12.08 штиль 0 4000 м мгла 10/0
[Ac trans Cs]
+8.7 +7.6 93 +8 +8 1009.8 971.5
21 12.08 штиль 0 10 км местами туман поземный 10/0
[Ac trans Cs]
+6.2 +5.1 93 +5 +5 1010.8 982.2
00 13.08 штиль 0 10 км дым 10/5 1000 м
[Sc Ac cast Cs]
+8.7 +7.4 92 +8 +9 1011.5 983.2 +4.8
03 13.08 штиль 0 10 км дым 10/8 1000 м
[Sc Cs]
+12.2 +9.2 82 +12 +13 1011.4 983.5
06 13.08 З 1 10 км дым 10/10 1000 м
[Sc]
+15.6 +11.1 75 +16 +16 1011.2 983.6
09 13.08 СЗ 2 10 км дым 10/8 600 м
[Cu Sc Cs]
+18.0 +13.4 74 +19 +19 1011.1 983.7
12 13.08 З 2 10 км дым 10/10 1000 м
[Sc]
+16.7 +12.9 78 +17 +17 1012.8 985.2 +18.3
15 13.08 ЮЗ 2 10 км дым 10/10 1000 м
[Sc]
+14.2 +12.4 89 +14 +14 1013.2 985.4
18 13.08 З 1 20 км слаб. ливневой дождь {гроза} 10/10 600 м
[Cb cap]
+12.6 +12.0 96 +13 +13 1014.6 986.6
21 13.08 З 1 20 км дым {ливн. осадки} 10/10 600 м
[Cb cap]
+11.9 +11.3 96 +12 +12 1014.8 986.7
00 14.08 З 2 20 км дым {ливн. осадки} 10/10 300 м
[Cb cap]
+13.0 +12.3 96 +12 +12 1015.0 987.1 +11.7 13
03 14.08 СЗ 2 50 км 10/10 600 м
[Cb cap]
+12.9 +11.4 91 +12 +12 1016.0 987.9
06 14.08 СЗ 3 50 км 10/10 1000 м
[Sc]
+13.7 +10.9 83 +13 +13 1016.7 988.7
09 14.08 СЗ 4 50 км 10/10 1000 м
[Sc]
+13.0 +9.9 81 +11 +11 1017.8 989.7
12 14.08 СЗ 3 50 км 10/10 600 м
[Frnb]
+12.4 +9.2 81 +11 +11 1019.2 991.0 +14.0
15 14.08 СЗ 3 50 км 10/10 600 м
[Frnb]
+11.5 +9.7 89 +10 +10 1020.1 991.8
18 14.08 С 2 50 км 10/10 600 м
[Frnb]
+10.8 +8.4 85 +9 +9 1021.4 993.0
21 14.08 С 2 50 км 10/10 1000 м
[Sc]
+9.6 +7.5 87 +8 +8 1023.0 994.4
00 15.08 СВ 3 50 км 9/9 1000 м
[Sc]
+9.9 +6.5 79 +8 +8 1024.0 995.4 +8.6
03 15.08 С 2 50 км 9/9 1000 м
[Sc]
+10.9 +5.7 70 +10 +10 1024.4 995.9
06 15.08 С 3 50 км 9/9 1000 м
[Sc]
+16.8 +10.0 64 +17 +17 1023.7 995.8
09 15.08 С 3 50 км 9/4 1000 м
[Sc Ac trans]
+12.8 +5.3 60 +12 +12 1023.8 995.5
12 15.08 В 2 50 км 9/6 1000 м
[Sc Ac trans]
+13.0 +5.6 61 +12 +12 1024.2 995.9 +17.1
15 15.08 С 1 50 км 9/6 1000 м
[Sc Ac trans]
+11.0 +5.4 68 +11 +11 1024.8 996.2
18 15.08 штиль 0 50 км 10/8 1000 м
[Sc Ac trans]
+9.8 +5.9 77 +9 +9 1025.0 996.4
21 15.08 З 1 50 км 10/10 1000 м
[Sc]
+7.8 +6.0 88 +7 +7 1025.7 996.8
00 16.08 В 2 50 км 10/10 1000 м
[Sc]
+9.7 +6.5 80 +8 +8 1025.9 997.2 +7.7
03 16.08 СВ 2 50 км 9/9 1000 м
[Sc]
+10.9 +6.0 72 +10 +10 1025.7 997.1
06 16.08 ЮВ 1 50 км 6/0
[Cs]
+14.2 +6.1 58 +15 +22 1023.8 995.6
09 16.08 ЮВ 2 50 км 3/0
[Cs]
+16.6 +6.9 53 +17 +20 1022.4 994.5
12 16.08 штиль 0 50 км 4/0
[Cs]
+16.3 +7.0 54 +16 +16 1022.2 994.2 +16.9
15 16.08 штиль 0 50 км 4/0
[Cs]
+9.9 +8.0 88 +9 +9 1023.0 994.4
18 16.08 штиль 0 50 км местами туман поземный 4/0
[Cs]
+2.4 +1.9 96 +1 +1 1014.2 994.8
21 16.08 штиль 0 500 м туман ?/? -0.2 -0.5 98 -2 -2 1025.1 995.4
00 17.08 штиль 0 2000 м туман на расстоянии ясно +2.8 +2.3 97 +2 +5 1024.7 995.4 -1.7
03 17.08 В 1 50 км ясно +13.9 +4.9 55 +14 +22 1023.0 994.8
06 17.08 ЮВ 1 50 км 5/0
[Cs]
+19.4 +5.1 39 +21 +28 комфорт 1020.9 993.3
09 17.08 СВ 2 50 км 3/0
[Cs]
+21.5 +3.7 31 +22 +24 комфорт 1019.3 991.8
12 17.08 В 1 50 км 3/0
[Cs]
+20.9 +3.9 33 +23 +23 комфорт 1019.0 991.6 +21.8
15 17.08 штиль 0 50 км 3/0
[Cs]
+13.9 +4.4 53 +14 +14 1019.9 991.8
18 17.08 штиль 0 50 км 3/0
[Cs]
+2.2 +0.9 91 +1 +1 1021.5 992.2
21 17.08 штиль 0 50 км местами туман поземный 3/0
[Cs]
-0.6 -1.2 96 -2 -2 1022.6 992.9
00 18.08 штиль 0 50 км ясно +4.8 +1.8 81 +4 +7 1021.6 992.6 -2.7
03 18.08 СВ 1 50 км ясно +16.1 +3.2 42 +17 +24 1019.4 991.5
06 18.08 ЮВ 2 50 км ясно +20.8 +3.8 33 +22 +29 комфорт 1017.4 990.2
09 18.08 СВ 2 50 км ясно +22.8 +3.4 28 +23 +26 комфорт 1016.0 988.8
12 18.08 В 1 50 км 3/0
[Ci fib]
+21.7 +3.7 31 +22 +22 комфорт 1015.2 988.0 +23.1
15 18.08 штиль 0 50 км 3/0
[Ac trans Cs]
+11.8 +5.3 64 +11 +11 1016.4 988.2
18 18.08 штиль 0 50 км 3/0
[Ac trans Cs]
+3.6 +2.6 93 +2 +2 1017.6 988.5
21 18.08 штиль 0 50 км местами туман поземный 3/0
[Ac trans Cs]
+0.1 -0.2 98 -1 -1 1018.5 989.0
00 19.08 штиль 0 50 км 3/0
[Cs]
+5.7 +2.3 79 +5 +8 1018.1 989.2 -0.4
03 19.08 штиль 0 50 км 1/0
[Ci fib]
+17.0 +3.7 41 +17 +25 1015.9 988.2

 

Местоположение метеостанции Ярольин (Якутия, Россия): широта 67.13 долгота 108.50 высота над уровнем моря 236 м.

В архиве по умолчанию представлена погода в Ярольине за последнюю неделю. Архивные данные за месяц целиком и за предыдущие месяцы, начиная с января 2011 года, Вы можете получить, выбрав интересующий диапазон дат из раскрывающегося списка и нажав кнопку "Ввод!".


*Определитесь, кто Вы:
робот инопланетянин человек

Внимание! Время в таблицах - всемирное. Для получения местного времени необходимо прибавить поправку, которая равна 9 ч.

Смотрите также архив погоды в соседних городах и на ближайших метеорологических станциях:

Погода в Полярном (Якутия, Россия) (176 км)
Погода в Айхале (Якутия, Россия) (187 км)
Погода в Оленеке (Якутия, Россия) (224 км)
Погода в Шелагонцах (Якутия, Россия) (269 км)
Погода в Хабардино (Якутия, Россия) (335 км)
Погода в Джалинде (Якутия, Россия) (399 км)
Погода в Эйке (Якутия, Россия) (412 км)
Погода в Сухане (Якутия, Россия) (442 км)
Погода в Кислокане (Эвенкия, Россия) (449 км)
Погода в Туре (Эвенкия, Россия) (483 км)

Пояснения к столбцам:

Ветер - указаны скорость ветра в м/с - средняя за 10 мин, порывы в срок и между сроками (в фигурных скобках) и направление, откуда дует ветер: С - северный, СВ - северо-восточный, В - восточный, ЮВ - юго-восточный, Ю - южный, ЮЗ - юго-западный, З - западный, СЗ - северо-западный.
Видимость - горизонтальная дальность видимости в метрах или километрах. При видимости от 1 до 10 км при отсутствии осадков обычно наблюдается дымка, при ухудшении видимости до 1 км и менее - туман. В сухую погоду видимость может ухудшаться дымом, пылью или мглою.
Явления - указаны атмосферные явления, наблюдавшиеся в срок или в последний час перед сроком; фигурными скобками обозначены явления, наблюдавшиеся между сроками (за 1-3 часа до срока); квадратными скобками обозначены град или гололедные отложения с указанием их диаметра в мм.
Облачность - указаны через наклонную черту общая и нижняя облачность в баллах и высота нижней границы облаков в метрах; квадратными скобками обозначены формы облаков: Ci - перистые, Cs - перисто-слоистые, Cc - перисто-кучевые, Ac - высококучевые, As - высокослоистые, Sc - слоисто-кучевые, Ns - слоисто-дождевые, Cu - кучевые, Cb - кучево-дождевые. Подробнее классификацию облаков см. в Атласе облаков (PDF).
T - Температура воздуха - температура, измеренная на высоте 2 м над землей.
Td - Температура точки росы - температура, при понижении до которой содержащийся в воздухе водяной пар достигнет насыщения.
f - Относительная влажность воздуха - влажноcть воздуха, измеренная на высоте 2 м над землей.
Te - Эффективная температура - температура, которую ощущает одетый по сезону человек в тени. Характеристика душности погоды. При расчете учитывается влияние влажности воздуха и скорости ветра на теплоощущения человека.
Tes - Эффективная температура на солнце - температура, которую ощущает человек, с поправкой на солнечный нагрев. Характеристика знойности погоды. Зависит от высоты солнца над горизонтом, облачности и скорости ветра. Ночью, в пасмурную погоду, а также при ветре 12 м/с и более поправка равна нулю.
P - Атмосферное давление - приведенное к уровню моря атмосферное давление.
Po - Атмосферное давление - измеренное на уровне метеостанции атмосферное давление.
Tmin - Минимальная температура - минимум температуры воздуха на высоте 2 м над землей.
Tmax - Максимальная температура - максимум температуры воздуха на высоте 2 м над землей.
R - Количество осадков - Количество выпавших осадков за период времени, мм. При наведении курсора мыши на число - период времени, за который выпало указанное количество осадков.
R24 - Количество осадков - Количество выпавших осадков за 24 часа, мм.
S - Снежный покров - Высота снежного покрова, см. При наведении курсора мыши на число - состояние снежного покрова и степень покрытия местности в баллах.